| time (UTC) | temp F | wind direction | speed MPH | gust MPH | rain 1hr in | rain 24hr in | rain mn in | humidity % | barometer mb |
| 20260506041504 | 43 | 34 | 3.0 | 9.0 | 0.00 | 0.52 | 0.52 | 95 | 1011.4 |
| 20260506041007 | 44 | 34 | 4.0 | 9.0 | 0.00 | 0.52 | 0.52 | 95 | 1011.3 |
| 20260506040505 | 44 | 22 | 6.0 | 9.0 | 0.00 | 0.52 | 0.52 | 95 | 1011.3 |
| 20260506040010 | 44 | 17 | 4.0 | 13.0 | 0.00 | 0.52 | 0.52 | 95 | 1011.4 |
| 20260506035502 | 44 | 340 | 7.0 | 13.0 | 0.00 | 0.52 | 0.52 | 95 | 1011.5 |
| 20260506035007 | 44 | 351 | 6.0 | 15.0 | 0.00 | 0.52 | 0.52 | 95 | 1011.3 |
| 20260506034548 | 44 | 21 | 4.0 | 15.0 | 0.00 | 0.52 | 0.52 | 95 | 1011.5 |
| 20260506034009 | 44 | 352 | 9.0 | 17.0 | 0.00 | 0.52 | 0.52 | 95 | 1011.5 |
| 20260506033506 | 44 | 29 | 9.0 | 17.0 | 0.00 | 0.52 | 0.52 | 95 | 1011.3 |
| 20260506033021 | 44 | 42 | 6.0 | 11.0 | 0.00 | 0.52 | 0.52 | 94 | 1011.2 |
| 20260506032503 | 44 | 11 | 4.0 | 12.0 | 0.00 | 0.52 | 0.52 | 94 | 1011.2 |
| 20260506032003 | 44 | 19 | 8.0 | 14.0 | 0.00 | 0.52 | 0.52 | 94 | 1011.0 |
| 20260506031504 | 44 | 34 | 7.0 | 14.0 | 0.00 | 0.52 | 0.52 | 94 | 1010.9 |
| 20260506031004 | 44 | 18 | 4.0 | 12.0 | 0.00 | 0.52 | 0.52 | 94 | 1011.0 |
| 20260506030504 | 44 | 350 | 7.0 | 15.0 | 0.00 | 0.52 | 0.52 | 94 | 1010.8 |
| 20260506030008 | 44 | 321 | 5.0 | 15.0 | 0.00 | 0.52 | 0.52 | 94 | 1010.6 |
| 20260506025503 | 44 | 22 | 7.0 | 13.0 | 0.00 | 0.52 | 0.52 | 94 | 1010.5 |
| 20260506025004 | 44 | 22 | 7.0 | 13.0 | 0.00 | 0.52 | 0.52 | 94 | 1010.4 |
| 20260506024528 | 45 | 28 | 6.0 | 10.0 | 0.00 | 0.52 | 0.52 | 94 | 1010.3 |
| 20260506024015 | 45 | 37 | 6.0 | 9.0 | 0.00 | 0.52 | 0.52 | 94 | 1010.2 |
| 20260506023509 | 45 | 345 | 6.0 | 10.0 | 0.00 | 0.52 | 0.52 | 94 | 1010.2 |
| 20260506023018 | 45 | 48 | 4.0 | 13.0 | 0.00 | 0.52 | 0.52 | 1010.4 | |
| 20260506022506 | 45 | 352 | 4.0 | 13.0 | 0.00 | 0.52 | 0.52 | 1010.4 | |
| 20260506022009 | 45 | 335 | 7.0 | 13.0 | 0.00 | 0.52 | 0.52 | 94 | 1010.3 |
| 20260506021532 | 45 | 346 | 5.0 | 10.0 | 0.00 | 0.52 | 0.52 | 94 | 1010.2 |
| 20260506021009 | 45 | 13 | 2.0 | 9.0 | 0.00 | 0.52 | 0.52 | 94 | 1010.2 |
| 20260506020504 | 45 | 360 | 3.0 | 12.0 | 0.00 | 0.52 | 0.52 | 94 | 1010.2 |
| 20260506020006 | 45 | 11 | 4.0 | 12.0 | 0.00 | 0.52 | 0.52 | 94 | 1010.2 |
| 20260506015504 | 45 | 338 | 7.0 | 12.0 | 0.00 | 0.52 | 0.52 | 94 | 1010.2 |
| 20260506015006 | 45 | 311 | 6.0 | 12.0 | 0.00 | 0.52 | 0.52 | 94 | 1010.1 |
| 20260506014507 | 45 | 46 | 5.0 | 14.0 | 0.00 | 0.52 | 0.52 | 94 | 1009.6 |
| 20260506014011 | 46 | 360 | 7.0 | 14.0 | 0.00 | 0.52 | 0.52 | 94 | 1009.5 |
| 20260506013512 | 46 | 19 | 9.0 | 14.0 | 0.00 | 0.52 | 0.52 | 94 | 1009.4 |
| 20260506013015 | 46 | 5 | 4.0 | 9.0 | 0.00 | 0.52 | 0.52 | 1009.3 | |
| 20260506012506 | 46 | 25 | 4.0 | 9.0 | 0.00 | 0.52 | 0.52 | 94 | 1009.4 |
| 20260506012010 | 47 | 17 | 6.0 | 11.0 | 0.00 | 0.52 | 0.52 | 94 | 1009.6 |
| 20260506011531 | 47 | 360 | 4.0 | 11.0 | 0.00 | 0.52 | 0.52 | 94 | 1009.7 |
| 20260506011012 | 47 | 321 | 3.0 | 13.0 | 0.00 | 0.52 | 0.52 | 94 | 1009.6 |
| 20260506010507 | 47 | 24 | 6.0 | 13.0 | 0.00 | 0.52 | 0.52 | 94 | 1009.4 |
| 20260506010022 | 48 | 326 | 5.0 | 10.0 | 0.00 | 0.52 | 0.52 | 94 | 1009.3 |
| 20260506005503 | 48 | 22 | 5.0 | 10.0 | 0.00 | 0.52 | 0.52 | 94 | 1009.2 |
| 20260506005002 | 48 | 23 | 4.0 | 14.0 | 0.00 | 0.52 | 0.52 | 94 | 1009.3 |
| 20260506004516 | 48 | 344 | 5.0 | 14.0 | 0.00 | 0.52 | 0.52 | 94 | 1009.2 |
| 20260506004012 | 48 | 329 | 4.0 | 10.0 | 0.00 | 0.52 | 0.52 | 94 | 1009.1 |
| 20260506003514 | 48 | 309 | 5.0 | 11.0 | 0.00 | 0.52 | 0.52 | 94 | 1008.8 |
| 20260506003041 | 48 | 360 | 4.0 | 12.0 | 0.00 | 0.52 | 0.52 | 94 | 1008.5 |
| 20260506002508 | 48 | 5 | 7.0 | 14.0 | 0.00 | 0.52 | 0.52 | 94 | 1008.5 |
| 20260506002007 | 49 | 29 | 7.0 | 14.0 | 0.00 | 0.52 | 0.52 | 94 | 1008.4 |
| 20260506001527 | 49 | 320 | 8.0 | 17.0 | 0.00 | 0.52 | 0.52 | 94 | 1008.4 |
| 20260506001010 | 49 | 37 | 9.0 | 17.0 | 0.00 | 0.52 | 0.52 | 94 | 1008.1 |
| 20260506000510 | 49 | 309 | 7.0 | 13.0 | 0.00 | 0.52 | 0.52 | 94 | 1008.2 |
| 20260506000025 | 49 | 352 | 8.0 | 15.0 | 0.00 | 0.52 | 0.52 | 94 | 1007.8 |
| 20260505235508 | 50 | 332 | 8.0 | 15.0 | 0.00 | 0.52 | 0.52 | 94 | 1008.1 |
| 20260505235011 | 50 | 350 | 6.0 | 10.0 | 0.00 | 0.52 | 0.52 | 94 | 1008.3 |
| 20260505234539 | 50 | 5 | 5.0 | 10.0 | 0.00 | 0.52 | 0.52 | 94 | 1008.3 |
| 20260505234004 | 50 | 11 | 5.0 | 10.0 | 0.00 | 0.52 | 0.52 | 94 | 1008.3 |
| 20260505233515 | 50 | 336 | 6.0 | 13.0 | 0.00 | 0.52 | 0.52 | 94 | 1008.5 |
| 20260505233027 | 51 | 351 | 6.0 | 12.0 | 0.00 | 0.52 | 0.52 | 94 | 1008.0 |
| 20260505232505 | 51 | 32 | 5.0 | 11.0 | 0.00 | 0.52 | 0.52 | 94 | 1007.8 |
| 20260505232004 | 51 | 323 | 6.0 | 11.0 | 0.00 | 0.52 | 0.52 | 94 | 1007.6 |
| 20260505231516 | 51 | 22 | 6.0 | 12.0 | 0.00 | 0.52 | 0.52 | 94 | 1007.6 |
| 20260505231009 | 51 | 337 | 8.0 | 12.0 | 0.00 | 0.52 | 0.52 | 94 | 1007.7 |
| 20260505230509 | 52 | 331 | 5.0 | 9.0 | 0.00 | 0.52 | 0.52 | 94 | 1007.7 |
| 20260505230017 | 52 | 23 | 4.0 | 13.0 | 0.00 | 0.52 | 0.52 | 94 | 1007.8 |
| 20260505225512 | 52 | 35 | 5.0 | 13.0 | 0.00 | 0.52 | 0.52 | 94 | 1007.8 |
| 20260505225008 | 52 | 35 | 6.0 | 10.0 | 0.00 | 0.52 | 0.52 | 94 | 1007.6 |
| 20260505224530 | 52 | 26 | 3.0 | 11.0 | 0.00 | 0.52 | 0.52 | 94 | 1007.7 |
| 20260505224013 | 52 | 36 | 5.0 | 13.0 | 0.00 | 0.52 | 0.52 | 94 | 1007.6 |
| 20260505223510 | 53 | 28 | 8.0 | 13.0 | 0.00 | 0.52 | 0.52 | 94 | 1007.7 |
| 20260505223024 | 53 | 323 | 7.0 | 13.0 | 0.00 | 0.52 | 0.52 | 94 | 1007.5 |
| 20260505222510 | 53 | 350 | 7.0 | 14.0 | 0.00 | 0.52 | 0.52 | 94 | 1007.3 |
| 20260505222006 | 53 | 29 | 6.0 | 15.0 | 0.00 | 0.52 | 0.52 | 94 | 1007.5 |
| 20260505221515 | 53 | 360 | 7.0 | 15.0 | 0.00 | 0.52 | 0.52 | 94 | 1007.3 |
| 20260505221011 | 54 | 329 | 6.0 | 13.0 | 0.00 | 0.52 | 0.52 | 94 | 1007.2 |
| 20260505220512 | 54 | 26 | 4.0 | 11.0 | 0.00 | 0.52 | 0.52 | 94 | 1007.6 |
| 20260505220038 | 54 | 30 | 4.0 | 10.0 | 0.00 | 0.52 | 0.52 | 94 | 1007.6 |
| 20260505215506 | 55 | 5 | 4.0 | 13.0 | 0.00 | 0.52 | 0.52 | 93 | 1007.4 |
| 20260505215006 | 55 | 13 | 5.0 | 14.0 | 0.00 | 0.52 | 0.52 | 93 | 1007.0 |
| 20260505214537 | 55 | 21 | 9.0 | 14.0 | 0.00 | 0.52 | 0.52 | 93 | 1007.0 |
| 20260505214010 | 55 | 352 | 6.0 | 12.0 | 0.00 | 0.52 | 0.52 | 93 | 1007.4 |
| 20260505213508 | 55 | 321 | 8.0 | 12.0 | 0.00 | 0.52 | 0.52 | 93 | 1007.1 |
| 20260505213026 | 56 | 28 | 7.0 | 13.0 | 0.00 | 0.52 | 0.52 | 92 | 1007.2 |
| 20260505212515 | 56 | 5 | 7.0 | 13.0 | 0.00 | 0.52 | 0.52 | 92 | 1007.1 |
| 20260505212017 | 57 | 313 | 7.0 | 13.0 | 0.00 | 0.52 | 0.52 | 92 | 1007.2 |
| 20260505211526 | 57 | 15 | 5.0 | 10.0 | 0.00 | 0.52 | 0.52 | 92 | 1007.3 |
| 20260505211003 | 57 | 315 | 5.0 | 11.0 | 0.00 | 0.52 | 0.52 | 92 | 1007.2 |
| 20260505210511 | 57 | 5 | 6.0 | 11.0 | 0.00 | 0.52 | 0.52 | 92 | 1007.1 |
| 20260505210029 | 58 | 26 | 6.0 | 11.0 | 0.00 | 0.52 | 0.52 | 91 | 1007.2 |
| 20260505205508 | 58 | 37 | 6.0 | 11.0 | 0.00 | 0.52 | 0.52 | 91 | 1007.2 |
| 20260505205007 | 59 | 26 | 5.0 | 15.0 | 0.00 | 0.52 | 0.52 | 90 | 1007.3 |
| 20260505204518 | 60 | 12 | 6.0 | 15.0 | 0.00 | 0.52 | 0.52 | 88 | 1007.5 |
| 20260505204011 | 62 | 336 | 4.0 | 10.0 | 0.00 | 0.52 | 0.52 | 89 | 1007.6 |
| 20260505203512 | 63 | 9 | 2.0 | 9.0 | 0.00 | 0.52 | 0.52 | 88 | 1007.5 |
| 20260505203021 | 64 | 16 | 5.0 | 9.0 | 0.00 | 0.52 | 0.52 | 89 | 1007.4 |
| 20260505202508 | 65 | 326 | 1.0 | 2.0 | 0.00 | 0.52 | 0.52 | 91 | 1007.2 |
| 20260505202012 | 65 | 59 | 2.0 | 5.0 | 0.00 | 0.52 | 0.52 | 91 | 1007.1 |
| 20260505201526 | 65 | 111 | 2.0 | 5.0 | 0.00 | 0.52 | 0.52 | 90 | 1007.0 |
| 20260505201011 | 65 | 123 | 1.0 | 4.0 | 0.00 | 0.52 | 0.52 | 90 | 1007.0 |
| 20260505200513 | 65 | 143 | 2.0 | 5.0 | 0.00 | 0.52 | 0.52 | 90 | 1007.0 |
| 20260505200029 | 65 | 157 | 2.0 | 5.0 | 0.00 | 0.52 | 0.52 | 90 | 1007.1 |
| 20260505195509 | 65 | 103 | 1.0 | 4.0 | 0.00 | 0.52 | 0.52 | 90 | 1007.2 |
| 20260505195009 | 65 | 182 | 1.0 | 4.0 | 0.00 | 0.52 | 0.52 | 90 | 1007.3 |
| 20260505194529 | 65 | 240 | 1.0 | 5.0 | 0.00 | 0.52 | 0.52 | 91 | 1007.5 |
| 20260505194004 | 65 | 188 | 2.0 | 5.0 | 0.00 | 0.52 | 0.52 | 91 | 1007.4 |
| 20260505193502 | 65 | 209 | 1.0 | 5.0 | 0.00 | 0.52 | 0.52 | 91 | 1007.3 |
| 20260505193012 | 65 | 212 | 1.0 | 9.0 | 0.00 | 0.52 | 0.52 | 91 | 1007.4 |
| 20260505192512 | 65 | 178 | 3.0 | 9.0 | 0.00 | 0.52 | 0.52 | 91 | 1007.4 |
| 20260505192007 | 65 | 217 | 3.0 | 9.0 | 0.00 | 0.52 | 0.52 | 91 | 1007.3 |
| 20260505191505 | 64 | 213 | 4.0 | 7.0 | 0.00 | 0.52 | 0.52 | 92 | 1007.3 |
| 20260505191014 | 64 | 234 | 3.0 | 5.0 | 0.00 | 0.52 | 0.52 | 92 | 1007.4 |
| 20260505190505 | 64 | 157 | 2.0 | 9.0 | 0.00 | 0.52 | 0.52 | 92 | 1007.4 |
| 20260505190024 | 64 | 188 | 2.0 | 9.0 | 0.00 | 0.52 | 0.52 | 92 | 1007.3 |
| 20260505185512 | 64 | 119 | 3.0 | 6.0 | 0.00 | 0.52 | 0.52 | 92 | 1007.1 |
| 20260505185006 | 64 | 360 | 2.0 | 6.0 | 0.00 | 0.52 | 0.52 | 92 | 1007.1 |
| 20260505184516 | 63 | 145 | 3.0 | 6.0 | 0.00 | 0.52 | 0.52 | 92 | 1007.1 |
| 20260505184009 | 63 | 203 | 2.0 | 5.0 | 0.00 | 0.52 | 0.52 | 92 | 1007.2 |
| 20260505183511 | 63 | 184 | 2.0 | 4.0 | 0.00 | 0.52 | 0.52 | 92 | 1007.3 |
| 20260505183029 | 63 | 167 | 1.0 | 3.0 | 0.00 | 0.52 | 0.52 | 92 | 1007.3 |
| 20260505182502 | 63 | 165 | 2.0 | 5.0 | 0.00 | 0.52 | 0.52 | 92 | 1007.2 |
| 20260505182013 | 63 | 211 | 1.0 | 5.0 | 0.00 | 0.52 | 0.52 | 92 | 1007.1 |
| 20260505181526 | 63 | 156 | 2.0 | 5.0 | 0.00 | 0.52 | 0.52 | 92 | 1007.3 |
| 20260505181010 | 63 | 176 | 1.0 | 5.0 | 0.00 | 0.52 | 0.52 | 92 | 1007.2 |
| 20260505180504 | 63 | 176 | 1.0 | 5.0 | 0.00 | 0.52 | 0.52 | 92 | 1007.2 |
| 20260505180040 | 63 | 185 | 1.0 | 5.0 | 0.00 | 0.52 | 0.52 | 92 | 1007.2 |
| 20260505175509 | 63 | 195 | 2.0 | 5.0 | 0.00 | 0.52 | 0.52 | 92 | 1007.3 |
| 20260505175011 | 63 | 149 | 2.0 | 5.0 | 0.00 | 0.52 | 0.52 | 92 | 1007.4 |
| 20260505174537 | 63 | 133 | 2.0 | 5.0 | 0.00 | 0.52 | 0.52 | 92 | 1007.4 |
| 20260505174006 | 63 | 194 | 3.0 | 6.0 | 0.00 | 0.52 | 0.52 | 91 | 1007.5 |
| 20260505173507 | 63 | 200 | 2.0 | 7.0 | 0.00 | 0.52 | 0.52 | 91 | 1007.5 |
| 20260505173028 | 63 | 173 | 2.0 | 7.0 | 0.00 | 0.52 | 0.52 | 91 | 1007.4 |
| 20260505172509 | 63 | 169 | 2.0 | 6.0 | 0.00 | 0.52 | 0.52 | 91 | 1007.5 |
| 20260505172008 | 63 | 130 | 3.0 | 7.0 | 0.00 | 0.52 | 0.52 | 91 | 1007.5 |
| 20260505171530 | 63 | 246 | 4.0 | 8.0 | 0.00 | 0.52 | 0.52 | 90 | 1007.5 |
| 20260505171010 | 63 | 167 | 4.0 | 9.0 | 0.00 | 0.52 | 0.52 | 90 | 1007.5 |
| 20260505170504 | 63 | 234 | 3.0 | 9.0 | 0.00 | 0.52 | 0.52 | 90 | 1007.5 |
| 20260505170016 | 63 | 138 | 4.0 | 8.0 | 0.00 | 0.52 | 0.52 | 90 | 1007.5 |
| 20260505165507 | 63 | 217 | 2.0 | 8.0 | 0.00 | 0.52 | 0.52 | 91 | 1007.4 |
| 20260505165007 | 63 | 224 | 1.0 | 7.0 | 0.00 | 0.52 | 0.52 | 91 | 1007.3 |
| 20260505164517 | 63 | 225 | 4.0 | 7.0 | 0.00 | 0.52 | 0.52 | 90 | 1007.3 |
| 20260505164010 | 63 | 137 | 2.0 | 8.0 | 0.00 | 0.52 | 0.52 | 91 | 1007.2 |
| 20260505163507 | 63 | 182 | 1.0 | 8.0 | 0.00 | 0.52 | 0.52 | 91 | 1007.1 |
| 20260505163035 | 63 | 151 | 1.0 | 5.0 | 0.00 | 0.52 | 0.52 | 91 | 1007.1 |
| 20260505162509 | 63 | 189 | 2.0 | 9.0 | 0.00 | 0.52 | 0.52 | 92 | 1007.0 |
| 20260505162007 | 63 | 171 | 3.0 | 9.0 | 0.00 | 0.52 | 0.52 | 91 | 1007.1 |
| 20260505161519 | 62 | 211 | 3.0 | 8.0 | 0.00 | 0.52 | 0.52 | 92 | 1007.1 |
| 20260505161007 | 62 | 203 | 4.0 | 8.0 | 0.00 | 0.52 | 0.52 | 91 | 1007.1 |
| 20260505160510 | 62 | 167 | 2.0 | 6.0 | 0.00 | 0.52 | 0.52 | 91 | 1007.2 |
| 20260505153034 | 62 | 218 | 1.0 | 8.0 | 0.00 | 0.52 | 0.52 | 92 | 1007.1 |
| 20260505152516 | 62 | 155 | 3.0 | 8.0 | 0.00 | 0.52 | 0.52 | 92 | 1007.2 |
| 20260505152013 | 61 | 170 | 3.0 | 6.0 | 0.00 | 0.52 | 0.52 | 93 | 1007.3 |
| 20260505151519 | 61 | 177 | 1.0 | 4.0 | 0.00 | 0.52 | 0.52 | 93 | 1007.3 |
| 20260505151012 | 60 | 177 | 1.0 | 5.0 | 0.00 | 0.52 | 0.52 | 94 | 1007.4 |
| 20260505150510 | 60 | 132 | 0.0 | 5.0 | 0.00 | 0.52 | 0.52 | 94 | 1007.4 |
| 20260505140510 | 58 | 223 | 3.0 | 12.0 | 0.01 | 0.52 | 0.52 | 93 | 1007.3 |
| 20260505125011 | 57 | 202 | 2.0 | 10.0 | 0.00 | 0.52 | 0.52 | 94 | 1007.3 |
| 20260505124524 | 57 | 220 | 4.0 | 8.0 | 0.00 | 0.52 | 0.52 | 94 | 1007.3 |
| 20260505124011 | 57 | 190 | 3.0 | 11.0 | 0.00 | 0.52 | 0.52 | 94 | 1007.3 |
| 20260505123508 | 57 | 194 | 5.0 | 9.0 | 0.00 | 0.52 | 0.52 | 94 | 1007.2 |
| 20260505123049 | 57 | 163 | 4.0 | 7.0 | 0.00 | 0.52 | 0.52 | 94 | 1007.3 |
| 20260505122510 | 57 | 255 | 2.0 | 6.0 | 0.00 | 0.52 | 0.52 | 94 | 1007.3 |
| 20260505122007 | 57 | 188 | 2.0 | 6.0 | 0.00 | 0.52 | 0.52 | 94 | 1007.3 |
| 20260505121529 | 57 | 228 | 2.0 | 6.0 | 0.00 | 0.52 | 0.52 | 94 | 1007.3 |
| 20260505121007 | 57 | 105 | 1.0 | 6.0 | 0.00 | 0.52 | 0.52 | 94 | 1007.1 |
| 20260505120507 | 57 | 171 | 2.0 | 5.0 | 0.00 | 0.52 | 0.52 | 94 | 1007.2 |
| 20260505120027 | 57 | 214 | 2.0 | 5.0 | 0.00 | 0.52 | 0.52 | 94 | 1007.3 |
| 20260505115510 | 57 | 134 | 0.0 | 3.0 | 0.00 | 0.52 | 0.52 | 93 | 1007.2 |
| 20260505115020 | 57 | 224 | 0.0 | 3.0 | 0.00 | 0.52 | 0.52 | 93 | 1007.2 |
| 20260505114531 | 57 | 209 | 1.0 | 2.0 | 0.00 | 0.52 | 0.52 | 93 | 1007.2 |
| 20260505114010 | 57 | 115 | 1.0 | 4.0 | 0.00 | 0.52 | 0.52 | 93 | 1007.2 |
| 20260505113508 | 57 | 217 | 2.0 | 4.0 | 0.00 | 0.52 | 0.52 | 93 | 1007.2 |
| 20260505113033 | 57 | 219 | 1.0 | 4.0 | 0.00 | 0.52 | 0.52 | 93 | 1007.2 |
| 20260505112507 | 57 | 113 | 1.0 | 4.0 | 0.00 | 0.52 | 0.52 | 93 | 1007.3 |
| 20260505112011 | 57 | 160 | 2.0 | 3.0 | 0.00 | 0.52 | 0.52 | 93 | 1007.4 |
| 20260505111549 | 57 | 223 | 1.0 | 3.0 | 0.00 | 0.52 | 0.52 | 93 | 1007.5 |
| 20260505111008 | 57 | 13 | 0.0 | 2.0 | 0.00 | 0.52 | 0.52 | 93 | 1007.8 |
| 20260505110501 | 57 | 35 | 1.0 | 2.0 | 0.01 | 0.52 | 0.52 | 93 | 1007.9 |
| 20260505102003 | 57 | 309 | 3.0 | 6.0 | 0.16 | 0.52 | 0.52 | 93 | 1008.1 |
| 20260505101532 | 57 | 241 | 1.0 | 3.0 | 0.17 | 0.52 | 0.52 | 92 | 1007.7 |
| 20260505101010 | 57 | 30 | 2.0 | 3.0 | 0.17 | 0.52 | 0.52 | 92 | 1007.4 |
| 20260505100510 | 57 | 305 | 0.0 | 5.0 | 0.18 | 0.51 | 0.51 | 92 | 1007.6 |
| 20260505100012 | 57 | 173 | 2.0 | 5.0 | 0.17 | 0.48 | 0.48 | 92 | 1007.5 |
| 20260505095505 | 57 | 209 | 2.0 | 6.0 | 0.17 | 0.43 | 0.43 | 92 | 1007.6 |
| 20260505095008 | 57 | 88 | 2.0 | 6.0 | 0.23 | 0.43 | 0.43 | 92 | 1007.4 |
| 20260505094502 | 57 | 256 | 1.0 | 3.0 | 0.31 | 0.42 | 0.42 | 92 | 1008.0 |
| 20260505094002 | 57 | 282 | 1.0 | 3.0 | 0.36 | 0.42 | 0.42 | 92 | 1007.6 |
| 20260505093512 | 57 | 115 | 2.0 | 5.0 | 0.34 | 0.40 | 0.40 | 92 | 1007.1 |
| 20260505093028 | 57 | 246 | 2.0 | 5.0 | 0.31 | 0.36 | 0.36 | 92 | 1007.6 |
| 20260505092510 | 57 | 309 | 1.0 | 6.0 | 0.31 | 0.36 | 0.36 | 91 | 1006.8 |
| 20260505092002 | 57 | 342 | 2.0 | 11.0 | 0.31 | 0.36 | 0.36 | 91 | 1006.5 |
| 20260505091507 | 57 | 37 | 6.0 | 11.0 | 0.30 | 0.35 | 0.35 | 91 | 1006.5 |
| 20260505091011 | 58 | 5 | 4.0 | 7.0 | 0.32 | 0.35 | 0.35 | 90 | 1007.6 |
| 20260505090508 | 58 | 341 | 2.0 | 8.0 | 0.31 | 0.33 | 0.33 | 90 | 1008.4 |
| 20260505090012 | 58 | 327 | 2.0 | 9.0 | 0.30 | 0.31 | 0.31 | 89 | 1008.4 |
| 20260505085504 | 58 | 284 | 4.0 | 9.0 | 0.25 | 0.26 | 0.26 | 89 | 1008.4 |
| 20260505085010 | 58 | 306 | 4.0 | 9.0 | 0.20 | 0.20 | 0.20 | 89 | 1008.1 |
| 20260505084513 | 58 | 274 | 5.0 | 9.0 | 0.11 | 0.11 | 0.11 | 88 | 1007.7 |
| 20260505084003 | 58 | 317 | 5.0 | 8.0 | 0.06 | 0.06 | 0.06 | 88 | 1006.5 |
| 20260505083502 | 59 | 342 | 5.0 | 8.0 | 0.06 | 0.06 | 0.06 | 87 | 1006.6 |
| 20260505083033 | 59 | 323 | 1.0 | 9.0 | 0.05 | 0.05 | 0.05 | 86 | 1006.8 |
| 20260505082507 | 59 | 180 | 2.0 | 14.0 | 0.05 | 0.05 | 0.05 | 86 | 1005.9 |
| 20260505082003 | 59 | 188 | 5.0 | 14.0 | 0.05 | 0.05 | 0.05 | 84 | 1006.0 |
| 20260505081507 | 60 | 179 | 3.0 | 12.0 | 0.05 | 0.05 | 0.05 | 84 | 1006.2 |
| 20260505081014 | 60 | 196 | 4.0 | 11.0 | 0.03 | 0.03 | 0.03 | 82 | 1006.3 |
| 20260505080513 | 60 | 209 | 4.0 | 11.0 | 0.02 | 0.02 | 0.02 | 81 | 1006.7 |
| 20260505080035 | 61 | 206 | 3.0 | 7.0 | 0.01 | 0.01 | 0.01 | 79 | 1007.0 |
| 20260505075502 | 61 | 232 | 3.0 | 8.0 | 0.01 | 0.01 | 0.01 | 78 | 1007.1 |
| 20260505075003 | 61 | 253 | 3.0 | 8.0 | 0.00 | 0.00 | 0.00 | 75 | 1007.3 |
| 20260505074527 | 61 | 261 | 3.0 | 8.0 | 0.00 | 0.00 | 0.00 | 75 | 1007.5 |
| 20260505074009 | 61 | 253 | 2.0 | 9.0 | 0.00 | 0.00 | 0.00 | 74 | 1007.1 |
| 20260505073510 | 61 | 300 | 2.0 | 9.0 | 0.00 | 0.00 | 0.00 | 75 | 1007.0 |
| 20260505073021 | 61 | 182 | 4.0 | 14.0 | 0.00 | 0.00 | 0.00 | 74 | 1006.8 |
| 20260505072506 | 62 | 176 | 5.0 | 21.0 | 0.00 | 0.00 | 0.00 | 74 | 1006.5 |
| 20260505072010 | 62 | 198 | 6.0 | 21.0 | 0.00 | 0.00 | 0.00 | 73 | 1006.0 |
| 20260505071503 | 62 | 209 | 8.0 | 16.0 | 0.00 | 0.00 | 0.00 | 72 | 1006.3 |
| 20260505071003 | 62 | 194 | 5.0 | 14.0 | 0.00 | 0.00 | 0.00 | 71 | 1006.5 |
| 20260505070510 | 62 | 182 | 5.0 | 14.0 | 0.00 | 0.00 | 0.00 | 72 | 1006.8 |
| 20260505070028 | 62 | 186 | 6.0 | 12.0 | 0.00 | 0.00 | 0.00 | 72 | 1006.8 |
| 20260505065509 | 62 | 176 | 4.0 | 15.0 | 0.00 | 0.00 | 0.00 | 71 | 1006.9 |
| 20260505065004 | 62 | 197 | 7.0 | 15.0 | 0.00 | 0.00 | 0.00 | 71 | 1007.1 |
| 20260505064511 | 62 | 188 | 5.0 | 11.0 | 0.00 | 0.00 | 0.00 | 71 | 1007.3 |
| 20260505064010 | 62 | 171 | 4.0 | 11.0 | 0.00 | 0.00 | 0.00 | 71 | 1007.4 |
| 20260505063510 | 62 | 208 | 5.0 | 13.0 | 0.00 | 0.00 | 0.00 | 71 | 1007.4 |
| 20260505063018 | 62 | 199 | 6.0 | 13.0 | 0.00 | 0.00 | 0.00 | 71 | 1007.7 |
| 20260505062508 | 62 | 198 | 6.0 | 15.0 | 0.00 | 0.00 | 0.00 | 71 | 1007.7 |
| 20260505062004 | 62 | 169 | 6.0 | 15.0 | 0.00 | 0.00 | 0.00 | 71 | 1007.7 |
| 20260505061504 | 62 | 171 | 8.0 | 14.0 | 0.00 | 0.00 | 0.00 | 72 | 1007.7 |
| 20260505061006 | 62 | 183 | 6.0 | 12.0 | 0.00 | 0.00 | 0.00 | 72 | 1007.8 |
| 20260505060504 | 62 | 160 | 5.0 | 13.0 | 0.00 | 0.00 | 0.00 | 72 | 1007.7 |
| 20260505060029 | 62 | 188 | 6.0 | 13.0 | 0.00 | 0.00 | 0.00 | 72 | 1007.9 |
| 20260505055512 | 62 | 209 | 5.0 | 12.0 | 0.00 | 0.00 | 0.00 | 72 | 1007.9 |
| 20260505055003 | 62 | 137 | 4.0 | 11.0 | 0.00 | 0.00 | 0.00 | 72 | 1008.0 |
| 20260505054511 | 62 | 147 | 6.0 | 11.0 | 0.00 | 0.00 | 0.00 | 72 | 1008.0 |
| 20260505054008 | 62 | 178 | 5.0 | 11.0 | 0.00 | 0.00 | 0.00 | 72 | 1007.9 |
| 20260505053514 | 62 | 194 | 4.0 | 12.0 | 0.00 | 0.00 | 0.00 | 72 | 1007.9 |
| 20260505053026 | 62 | 184 | 5.0 | 12.0 | 0.00 | 0.00 | 0.00 | 72 | 1007.9 |
| 20260505052508 | 62 | 183 | 6.0 | 10.0 | 0.00 | 0.00 | 0.00 | 72 | 1007.9 |
| 20260505052008 | 62 | 191 | 4.0 | 9.0 | 0.00 | 0.00 | 0.00 | 72 | 1007.9 |
| 20260505051519 | 62 | 203 | 5.0 | 14.0 | 0.00 | 0.00 | 0.00 | 72 | 1008.1 |
| 20260505051007 | 62 | 178 | 7.0 | 13.0 | 0.00 | 0.00 | 0.00 | 72 | 1008.2 |
| 20260505050511 | 62 | 218 | 4.0 | 12.0 | 0.00 | 0.00 | 0.00 | 72 | 1008.2 |